Location: Madrid
(40.4000°N, 3.6830°W)
Time: 08:46:39
(UTC+02:00)

ISS - Pass Details

Date: 25 July 2017
Orbit: 400 x 408 km, 51.6° (Epoch: 21 July)

Event Time Altitude Azimuth Distance (km) Brightness Sun altitude
Rises 00:02:29 0° 265° (W) 2,305 0.4 -21.8°
Reaches altitude 10° 00:04:49 10° 280° (W) 1,448 -0.5 -22.1°
Maximum altitude 00:07:30 23° 336° (NNW) 896 -1.3 -22.3°
Drops below altitude 10° 00:10:12 10° 32° (NNE) 1,453 -0.7 -22.6°
Sets 00:12:33 0° 47° (NE) 2,314 0.1 -22.9°
